Sign In / Sign Up
 
 
Falling Leaves Regatta. Leg 1. 17/10 - 23/10



Race Date (UTC) # I place II place III place Track
Race8653 2016-10-23 20:13:17 8 Macarró Xiflat! Argonaftis EIGER
Race8652 2016-10-23 20:12:32 8 Vendetta Mary Stuart Julian
Race8651 2016-10-23 20:11:24 8 Boatty I ER POLLITA PETTONY
Race8650 2016-10-23 20:10:20 8 Ja boaty mac boat face HUN76
Race8649 2016-10-23 20:09:02 8 Nik ESP-299 Anjuta
Race8648 2016-10-23 20:08:23 8 Kiri virone mascalzone Frane
Race8647 2016-10-23 20:08:01 8 карасик lieselotte REAL
Race8646 2016-10-23 20:07:05 8 Baptiste insomnia Glide
Race8645 2016-10-23 20:06:25 8 Olivia R Toscana Zara anti-fascist
Race8644 2016-10-23 20:05:50 8 juveMERDA EIGER cassiopea
Race8643 2016-10-23 20:04:52 8 Dream Lupina favola
Race8642 2016-10-23 20:03:43 8 Chimere FANCULO Valtellina
Race8641 2016-10-23 20:03:08 8 camper Ja trieste
Race8640 2016-10-23 20:02:49 8 remember twin Rika
Race8639 2016-10-23 20:01:44 8 Nik ESP-299 youppi03:50:40
Race8638 2016-10-23 20:01:16 8 Le Pacha ITA199090 lieselotte
Race8637 2016-10-23 20:00:38 8 Wind REAL карасик
Race8636 2016-10-23 19:59:51 8 Dart18 Atalanta boat
Race8635 2016-10-23 19:58:51 8 REALSHIT Toscana Arrow
Race8634 2016-10-23 19:58:19 8 REAL 1047 PONTEDEUME Elena
Race8633 2016-10-23 19:57:32 8 Cougar ITA199090 Rika
Race8632 2016-10-23 19:56:48 8 Lord of the sea Dream STAR 7926
Race8631 2016-10-23 19:55:28 8 remember Leandro Ja
Race8630 2016-10-23 19:54:27 8 youppi03:50:40 Stoertebecker kuddukunnu
Race8629 2016-10-23 19:53:55 8 silviom Y.C. Tempio Pausania ODV
Race8628 2016-10-23 19:53:11 8 ELIOTLUCAS-5 Dart18 ITA 24
Race8627 2016-10-23 19:51:59 8 Собака Atalanta Toscana
Race8626 2016-10-23 19:51:18 8 La GattaGnuda Le Pacha boat
Race8625 2016-10-23 19:50:51 8 ER POLLITA REALSHIT Northern lights
Race8624 2016-10-23 19:50:21 8 WeRThWrld batana boat Stars & Stripes
Race8623 2016-10-23 19:49:25 8 ZioUpo Dream ITA9090
Race8622 2016-10-23 19:48:32 8 remember Ja Arrow
Race8621 2016-10-23 19:47:57 8 Argonaftis Airush iaia
Race8620 2016-10-23 19:47:30 8 black pig juveMERDA Picolino
Race8619 2016-10-23 19:46:41 8 ciuca89 ODV youppi03:50:40
Race8618 2016-10-23 19:45:44 8 Chimere Lord of the sea penkalet
Race8617 2016-10-23 19:44:45 8 jorge53112 Pacaypalla карасик
Race8616 2016-10-23 19:44:11 8 AAAKK Rika Leandro
Race8615 2016-10-23 19:43:16 8 WeRThWrld ER POLLITA REALSHIT
Race8614 2016-10-23 19:41:53 8 piro lita KataevRUS. corsaire
Race8613 2016-10-23 19:41:10 8 ITA 17700 La GattaGnuda naZ
Race8612 2016-10-23 19:40:18 8 juveMERDA Sam Stars & Stripes
Race8611 2016-10-23 19:39:45 8 ELIOTLUCAS-2 Leucosia Picolino
Race8610 2016-10-23 19:39:08 8 penkalet youppi03:50:40 Pacaypalla
Race8609 2016-10-23 19:37:53 8 Klaus Paat Venezia84
Race8608 2016-10-23 19:36:35 8 Toscana cippalippa 10---NA
Race8607 2016-10-23 19:35:42 8 Airush REALSHIT Cucurucho-03:59:40
Race8606 2016-10-23 19:34:00 8 Cataclic Y.C. Tempio Pausania Northern lights
Race8605 2016-10-23 19:33:16 8 Argonaftis juveMERDA MAGJA
Race8604 2016-10-23 19:32:47 8 La GattaGnuda naZ Norman
Race8603 2016-10-23 19:32:06 8 penkalet Olivia R 4622 opti
Race8602 2016-10-23 19:30:59 8 Pacaypalla FANCULO Douar-Nevez
Race8601 2016-10-23 19:30:16 8 Paat Maremansa AquilaF542
Race8600 2016-10-23 19:29:28 8 Lupina ER POLLITA Ste.zilio
Race8599 2016-10-23 19:29:01 8 jalami lieselotte AAAKK
Race8598 2016-10-23 19:28:13 8 mumu Airush Cucurucho-03:59:40
Race8597 2016-10-23 19:27:12 8 le tiolu apuntello Distraction
Race8596 2016-10-23 19:26:04 8 ITA-142374 ELIOTLUCAS 1 mr.cello
Race8595 2016-10-23 19:24:57 8 Norman Leo 96
Race8594 2016-10-23 19:23:56 8 bolina74 FANCULO 4622 opti
Race8593 2016-10-23 19:22:52 8 Argonaftis Avalon fred
Race8592 2016-10-23 19:22:17 8 silviom Ste.zilio chicken wing
Race8591 2016-10-23 19:21:43 8 cippalippa ER POLLITA AAAKK
Race8590 2016-10-23 19:21:07 8 j24kr KITER boaty mac boat face
Race8589 2016-10-23 19:20:11 8 Igor YCB rat des mers le tiolu
Race8588 2016-10-23 19:18:55 8 Chipao casinista corsaire
Race8587 2016-10-23 19:18:09 8 Norman penkalet optisail
Race8586 2016-10-23 19:17:30 8 bolina74 Leo Lupina
Race8585 2016-10-23 19:16:28 8 HUN76 Atila MysTikki
Race8584 2016-10-23 19:16:01 8 ITA199090 AquilaF542 LNZ CABOZO
Race8583 2016-10-23 19:15:22 8 Claval ELIOTLUCAS-2 Toscana
Race8582 2016-10-23 19:14:41 8 ENEMYONE Sorcetuga Erotica
Race8581 2016-10-23 19:13:50 8 Igor YCB KITER Ste.zilio
Race8580 2016-10-23 19:13:10 8 casinista AAAKK boaty mac boat face
Race8579 2016-10-23 19:12:29 8 Nientemale POL 94 corsaire
Race8578 2016-10-23 19:11:50 8 Arte 54 REAL 1047 cippalippa
Race8577 2016-10-23 19:10:41 8 ALICE FANCULO Aprile
Race8576 2016-10-23 19:09:52 8 boomerang bolina74 AccordDigital
Race8575 2016-10-23 19:09:24 8 WeRThWrld valver mr.cello
Race8574 2016-10-23 19:08:34 8 Alb_YCBE AquilaF542 nussschale
Race8573 2016-10-23 19:07:50 8 Johnny Douar-Nevez ITA199090
Race8572 2016-10-23 19:07:15 8 fiba KITER Leo
Race8571 2016-10-23 19:05:38 8 casinista Paat Erotica
Race8570 2016-10-23 19:04:37 8 ALICE REAL 1047 Lago26-Mike
Race8569 2016-10-23 19:03:33 5 BarbaRossa Cialtroskj WeRThWrld
Race8568 2016-10-23 19:02:45 8 Rika bolina74 ELIOTLUCAS-2
Race8567 2016-10-23 19:02:05 8 Aprile TWO Mak
Race8566 2016-10-23 19:01:29 8 silviom layline AquilaF542
Race8565 2016-10-23 19:00:50 8 fiba Johnny Sorcetuga
Race8564 2016-10-23 18:59:28 8 DavyJones Sciaccalimone Leo
Race8563 2016-10-23 18:58:25 8 Sorcerer star6546 uncletony
Race8562 2016-10-23 18:57:28 8 Arte 54 Lago26-Mike Ludovic
Race8561 2016-10-23 18:56:46 8 Cialtroskj KataevRUS. Leo
Race8560 2016-10-23 18:56:14 8 Atila boaty mac boat face bolina74
Race8559 2016-10-23 18:55:12 8 Airush killadrones.com Mak
Race8558 2016-10-23 18:54:16 8 fiba Shergan SRDN Islas Malvinas
Race8557 2016-10-23 18:53:09 8 AVISO CYC WildOatsXI Ainsdale Sail
Race8556 2016-10-23 18:52:17 8 Equanimity Toscana scica
Race8555 2016-10-23 18:51:21 8 figufo Johnny star6546
Race8554 2016-10-23 18:50:46 8 ita58 Ganzuria Arte 54